#timestamp,LO_Frequency,Hit 
1500026415.2,286046911.8,N
1500026435.9,286046912.3,N
1500026455.7,286046912.6,N
1500026475.5,286046910.2,N
1500026495.4,286046910.4,N
1500026515.2,286046910.1,N
1500026535.0,286046910.2,N
1500026535.9,286046910.2,N
1500026555.8,286046910.5,N
1500026575.6,286046910.8,N
1500026595.4,286046910.7,N
1500026615.3,286046912.6,N
1500026635.1,286046912.3,N
1500026655.8,286046912.6,N
1500026675.7,286046911.8,N
1500026695.5,286046914.4,N
1500026715.3,286046913.9,N
1500026735.2,286046911.7,N
1500026755.9,286046913.7,N
1500026775.7,286046913.4,N
1500026795.6,286046910.2,N
1500026815.4,286046912.4,N
1500026835.2,286046912.6,N
1500026855.1,286046910.4,N
1500026856.0,286046910.4,N
1500026875.8,286046913.2,N
1500026895.6,286046910.2,N
1500026915.5,286046910.2,N
1500026935.3,286046911.0,N
1500026955.1,286046909.9,N
1500026975.9,286046909.9,N
1500026995.7,286046910.9,N
1500027015.5,286046911.2,N
1500027035.3,286046911.0,N
1500027055.2,286046910.2,N
1500027075.0,286046912.6,N
1500027075.9,286046912.6,N
1500027095.7,286046907.4,N
1500027115.6,286046907.4,N
1500027135.4,286046909.4,N
1500027155.2,286046908.3,N
1500027175.1,286046905.5,N
1500027176.0,286046905.5,N
1500027195.8,286046907.0,N
1500027215.6,286046906.9,N
1500027235.5,286046905.8,N
1500027255.3,286046908.1,N
1500027275.1,286046908.1,N
1500027295.9,286046905.3,N
1500027315.7,286046907.5,N
1500027335.5,286046907.1,N
1500027355.4,286046909.0,N
1500027375.2,286046909.3,N
1500027395.0,286046908.9,N
1500027395.9,286046908.9,N
1500027415.8,286046909.2,N
1500027435.6,286046909.5,N
1500027455.4,286046908.2,N
1500027475.3,286046907.7,N
1500027495.1,286046908.7,N
1500027496.0,286046908.7,N
1500027515.8,286046909.6,N
1500027535.7,286046904.3,N
1500027555.5,286046905.1,N
1500027575.3,286046903.0,N
1500027595.1,286046904.5,N
1500027615.9,286046903.5,N
1500027635.7,286046906.6,N
1500027655.5,286046904.5,N
1500027675.4,286046901.2,N
1500027695.2,286046899.3,N
1500027715.0,286046900.0,N
1500027715.9,286046900.0,N
1500027735.8,286046901.1,N
1500027755.6,286046903.0,N
1500027775.4,286046902.2,N
1500027795.3,286046903.8,N
1500027815.1,286046904.5,N
1500027816.0,286046904.5,N
1500027835.8,286046904.3,N
1500027855.7,286046904.7,N
1500027875.5,286046906.4,N
1500027895.3,286046902.2,N
1500027915.2,286046904.6,N
1500027935.9,286046904.6,N
1500027955.7,286046903.4,N
1500027975.6,286046901.2,N
1500027995.4,286046901.5,N
1500028015.2,286046901.7,N
1500028035.0,286046901.4,N
1500028036.0,286046901.4,N
1500028055.8,286046900.0,N
1500028075.6,286046899.2,N
1500028095.4,286046900.4,N
1500028115.3,286046901.4,N
1500028135.1,286046901.1,N
1500028155.8,286046901.9,N
1500028175.7,286046899.2,N
1500028195.5,286046899.6,N
1500028215.3,286046899.7,N
1500028235.2,286046901.2,N
1500028255.9,286046899.4,N
1500028275.7,286046898.8,N
1500028295.6,286046896.0,N
1500028315.4,286046896.9,N
1500028335.2,286046896.7,N
1500028355.1,286046898.0,N
1500028356.0,286046898.0,N
1500028375.8,286046897.3,N
1500028395.6,286046897.5,N
1500028415.5,286046898.0,N
1500028435.3,286046896.3,N
1500028455.1,286046897.4,N
1500028475.8,286046900.0,N
1500028495.7,286046896.1,N
1500028515.5,286046898.1,N
1500028535.3,286046899.6,N
1500028555.2,286046899.3,N
1500028575.0,286046901.8,N
1500028575.9,286046901.8,N
1500028595.7,286046901.0,N
1500028615.6,286046901.9,N
1500028635.4,286046895.7,N
1500028655.2,286046896.3,N
1500028675.1,286046894.7,N
1500028676.0,286046894.7,N
1500028695.8,286046896.3,N
1500028715.6,286046893.4,N
1500028735.5,286046894.8,N
1500028755.3,286046896.0,N
1500028775.1,286046898.7,N
1500028795.9,286046894.6,N
1500028815.7,286046897.2,N
1500028835.5,286046892.7,N
1500028855.4,286046892.0,N
1500028875.2,286046892.0,N
1500028895.0,286046890.9,N
1500028895.9,286046890.9,N
1500028915.8,286046891.3,N
1500028935.6,286046892.7,N
1500028955.4,286046896.5,N
1500028975.2,286046895.5,N
1500028995.1,286046890.9,N
1500028996.0,286046890.9,N
1500029015.8,286046893.9,N
1500029035.6,286046893.9,N
1500029055.5,286046893.2,N
1500029075.3,286046891.5,N
1500029095.1,286046892.7,N
1500029115.9,286046891.8,N
1500029135.7,286046889.7,N
1500029155.5,286046890.8,N
1500029175.4,286046893.2,N
1500029195.2,286046894.8,N
1500029215.0,286046896.4,N
1500029215.9,286046896.4,N
1500029235.8,286046898.5,N
1500029255.6,286046896.7,N
1500029275.4,286046892.8,N
1500029295.3,286046891.8,N
1500029315.1,286046893.4,N
1500029316.0,286046893.4,N
1500029335.8,286046893.4,N
1500029355.7,286046891.9,N
1500029375.5,286046889.9,N
1500029395.3,286046893.2,N
1500029415.1,286046893.8,N
1500029435.9,286046895.1,N
1500029455.7,286046892.9,N
1500029475.5,286046892.8,N
1500029495.4,286046893.7,N
1500029515.2,286046892.9,N
1500029535.0,286046896.7,N
1500029535.9,286046896.7,N
1500029555.8,286046896.7,N
1500029575.6,286046893.2,N
1500029595.4,286046892.6,N
1500029615.3,286046896.4,N
1500029635.1,286046895.7,N
1500029636.0,286046895.7,N
1500029655.8,286046893.4,N
1500029675.7,286046892.8,N
1500029695.5,286046892.5,N
1500029715.3,286046894.3,N
1500029735.2,286046896.9,N
1500029755.9,286046893.3,N
1500029775.7,286046893.8,N
1500029795.6,286046891.4,N
1500029815.4,286046893.3,N
1500029835.2,286046892.7,N
1500029855.0,286046894.6,N
1500029855.9,286046894.6,N
1500029875.8,286046896.6,N
1500029895.6,286046896.5,N
1500029915.4,286046892.9,N
1500029935.3,286046891.8,N
1500029955.1,286046887.7,N
1500029975.8,286046890.8,N
1500029995.7,286046892.4,N
